Preview of NWS' New Version of Forecast
This preview is not operational and should not be used for support decisions.

Regional Weather Roundup (RWR)

Issued by National Weather Service (NWS)

                            
000
ASPQ40 PGUM 162210
RWRPQ 
WEATHER ROUNDUP FOR THE MARIANAS AND MICRONESIA
NATIONAL WEATHER SERVICE TIYAN GU
800 AM CHST SUN FEB 17 2019

GUZ001>004-162300-
MARIANA ISLANDS-
  
CITY           SKY/WX    TMP DP  RH WIND       PRES   REMARKS
GUAM AIRPORT   SUNNY     79  73  83 E9        30.02R                  
ANDERSEN AFB   MOSUNNY   79  68  69 NE22      30.03R                  
ROTA AIRPORT   MOSUNNY   77  72  83 NE12      30.02R                  
TINIAN AP      MOSUNNY  N/A N/A N/A E14       30.01R                  
SAIPAN AP      MOSUNNY   81  68  65 NE14      30.03R                  

$$

PMZ161-162300-
REPUBLIC OF PALAU-
  
CITY           SKY/WX    TMP DP  RH WIND       PRES   REMARKS
KOROR AP       MOCLDY    75  72  88 NE5       29.93R                  
KOROR WSO      NOT AVBL                                               

$$

PMZ171>174-162300-
FEDERATED STATES OF MICRONESIA-
  
CITY           SKY/WX    TMP DP  RH WIND       PRES   REMARKS
YAP AIRPORT    CLOUDY    81  73  78 VRB7      29.93R                  
CHUUK AP       LGT RAIN  77  73  88 NE12      29.88R                  
POHNPEI AP     CLOUDY    82  75  78 N12       29.82R                  
POHNPEI WSO    CLOUDY    79  73  83 E3        29.88R                  
KOSRAE AP      CLOUDY    79  77  94 N22       29.78                   

$$

PMZ181-162300-
REPUBLIC OF THE MARSHALL ISLANDS-
  
CITY           SKY/WX    TMP DP  RH WIND       PRES   REMARKS
KWAJALEIN AP   NOT AVBL                                               
MAJURO AP      NOT AVBL                                               
MAJURO WSO     PTSUNNY   86  77  74 E13       29.78R HX  97           

$$